SCP
0 0 0 0 0 0 0 0 0 0 0 0 0 0 0 0 0 0 0 0 0 0 0 0 0 0 0 0 0 0 0 0 0 0 0 0 0 0 0 0 0 0 0 0
0 0 0 0 0 0 0 0 0 0 0 0 0 0 0 0 0 0 0 0 0 0 0 0 0 0 0 0 0 0 0 0 0 0 0 0 0 0 0 0 0 0 0 0
0 0 0 0 0 0 0 0 0 0 0 0 0 0 0 0 0 0 0 0 0 0 0 0 0 0 0 0 0 0 0 0 0 0 0 0 0 0 0 0 0 0 0 0
0 0 0 0 0 0 0 0 0 0 0 0 0 0 0 0 0 0 0 0 0 0 0 0 0 0 0 0 0 0 0 0 0 0 0 0 0 0 0 0 0 0 0 0
0 0 0 0 0 0 0 0 0 0 0 0 0 0 0 0 0 0 0 0 0 0 0 0 0 0 0 0 0 0 0 0 0 0 0 0 0 0 0 0 0 0 0 0
0 0 0 0 0 0 0 0 0 0 0 0 0 0 0 0 0 0 0 0 0 0 0 0 0 0 0 0 0 0 0 0 0 0 0 0 0 0 0 0 0 0 0 0
0 0 0 0 0 0 0 0 0 0 0 0 0 0 0 0 0 0 0 0 0 0 0 0 0 0 0 0 0 0 0 0 0 0 0 0 0 0 0 0 0 0 0 0
0 0 0 0 0 0 0 0 0 0 0 0 0 0 0 0 0 0 0 0 0 0 0 0 0 0 0 0 0 0 0 0 0 0 0 0 0 0 0 0 0 0 0 0
0 0 0 0 0 0 0 0 0 0 0 0 0 0 0 0 0 0 0 0 0 0 0 0 0 0 0 0 0 0 0 0 0 0 0 0 0 0 0 0 0 0 0 0
0 0 0 0 0 0 0 0 0 0 0 0 0 0 0 0 0 0 0 0 0 0 0 0 0 0 0 0 0 0 0 0 0 0 0 0 0 0 0 0 0 0 0 -0
0 0 0 0 0 0 0 0 0 0 0 0 0 0 0 0 0 0 0 0 0 0 0 0 0 0 0 0 0 0 0 0 0 0 0 0 0 0 0 0 0 0 0 -0
0 0 0 0 0 0 0 0 0 0 0 0 0 0 0 0 0 0 0 0 0 0 0 0 0 0 0 0 0 0 0 0 0 0 0 0 0 0 0 0 0 0 0 -0
0 0 0 0 0 0 0 0 0 0 0 0 0 0 0 0 0 0 0 0 0 0 0 0 0 0 0 0 0 0 0 0 0 0 0 0 0 0 0 0 0 0 0 0
0 0 0 0 0 0 0 0 0 0 0 0 0 0 0 0 0 0 0 0 0 0 0 0 0 0 0 0 0 0 0 0 0 0 0 0 0 0 0 0 0 0 0 0
0 0 0 0 0 0 0 0 0 0 0 0 0 0 0 0 0 0 0 0 0 0 0 0 0 0 0 0 0 0 0 0 0 0 0 0 0 0 0 0 0 0 0 0
0 0 0 0 0 0 0 0 0 0 0 0 0 0 0 0 0 0 0 0 0 0 0 0 0 0 0 0 0 0 0 0 0 0 0 0 0 0 0 0 0 0 0 0
0 0 0 0 0 0 0 0 0 0 0 0 0 0 0 0 0 0 0 0 0 0 0 0 0 0 0 0 0 0 0 0 0 0 0 0 0 0 0 0 0 0 0 0
0 0 0 0 0 0 0 0 0 0 0 0 0 0 0 0 0 0 0 0 0 0 0 0 0 0 0 0 0 0 0 0 0 0 0 0 0 0 0 0 0 0 0 0
0 0 0 0 0 0 0 0 0 0 0 0 0 0 0 0 0 0 0 0 0 0 0 0 0 0 0 0 0 0 0 0 0 0 0 0 0 0 0 0 0 0 0 0
0 0 0 0 0 0 0 0 0 0 0 0 0 0 0 0 0 0 0 0 0 0 0 0 0 0 0 0 0 0 0 0 0 0 0 0 0 0 0 0 0 0 0 0
0 0 0 0 0 0 0 0 0 0 0 0 0 0 0 0 0 0 0 0 0 0 0 0 0 0 0 0 0 0 0 0 0 0 0 0 0 0 0 0 0 0 0 0
0 0 0 0 0 0 0 0 0 0 0 0 0 0 0 0 0 0 0 0 0 0 0 0 0 0 0 0 0 0 0 0 0 0 0 0 0 0 0 0 0 0 0 0
0 0 0 0 0 0 0 0 0 0 0 0 0 0 0 0 0 0 0 0 0 0 0 0 0 0 0 0 0 0 0 0 0 0 0 0 0 0 0 0 0 0 0 0
0 0 0 0 0 0 0 0 0 0 0 0 0 0 0 0 0 0 0 0 0 0 0 0 0 0 0 0 0 0 0 0 0 0 0 0 0 0 0 0 0 0 0 0
0 0 0 0 0 0 0 0 0 0 0 0 0 0 0 0 0 0 0 0 0 0 0 0 0 0 0 0 0 0 0 0 0 0 0 0 0 0 0 0 0 0 0 0
0 0 0 0 0 0 0 0 0 0 0 0 0 0 0 0 0 0 0 0 0 0 0 0 0 0 0 0 0 0 0 0 0 0 0 0 0 0 0 0 0 0 0 0
0 0 0 0 0 0 0 0 0 0 0 0 0 0 0 0 0 0 0 0 0 0 0 0 0 0 0 0 0 0 0 0 0 0 0 0 0 0 0 0 0 0 0 0
Wind_Speed
3 2 3 3 2 3 5 5 6 6 6 9 7 9 10 8 6 9 10 10 10 10 8 9 10 11 12 12 12 14 14 15 15 15 15 15 16 16 16 17 17 17 14 15
2 2 3 3 3 4 4 3 4 6 8 5 7 7 8 8 8 10 11 12 12 12 12 11 11 12 13 12 12 13 13 14 15 15 15 15 15 16 16 16 16 16 14 14
4 5 3 5 6 6 4 4 4 6 6 6 8 9 9 5 7 9 11 11 11 11 10 9 9 11 12 12 12 12 12 13 14 15 15 16 16 16 15 15 15 15 14 14
3 6 5 4 1 3 2 5 5 6 6 7 7 8 3 4 6 8 8 9 9 9 10 8 7 9 10 11 11 12 12 12 13 14 15 15 14 14 13 12 12 12 12 13
2 3 10 4 3 3 2 6 3 4 6 7 4 5 1 4 4 5 4 5 6 6 7 8 9 10 11 11 10 12 12 12 12 12 14 14 14 14 12 10 9 10 10 12
3 2 8 2 3 3 2 5 4 4 5 5 5 7 3 3 5 5 4 5 6 7 7 8 8 9 10 11 11 12 13 13 12 12 13 12 12 13 12 11 11 11 11 11
4 6 10 3 4 5 2 5 1 1 2 1 2 3 4 4 5 4 5 6 6 7 7 8 9 9 10 10 11 12 13 13 12 12 12 9 10 10 11 12 12 11 12 11
5 5 11 4 7 7 7 1 1 1 1 1 2 3 4 5 6 7 7 7 7 7 8 8 8 8 10 11 12 12 13 13 12 12 11 11 10 10 10 10 10 9 9 11
10 9 3 4 6 4 3 0 1 2 1 1 1 2 4 5 6 6 7 8 7 7 9 8 7 8 10 12 11 12 13 13 12 13 11 10 9 9 8 8 8 8 8 9
5 6 4 3 2 2 3 3 3 3 3 3 1 1 3 6 7 7 8 7 8 9 10 10 9 10 10 12 12 12 13 13 12 11 10 8 9 8 8 8 8 9 8 9
5 4 1 2 3 4 5 5 5 5 4 3 2 2 3 4 6 7 9 9 9 9 11 12 11 12 12 11 11 12 14 13 13 12 10 9 8 8 10 7 10 10 5 6
7 5 6 4 3 6 6 5 5 5 4 3 3 2 3 4 5 6 8 9 10 11 11 12 12 13 13 12 11 12 13 13 11 11 10 10 9 10 14 14 19 18 15 13
3 3 5 6 4 4 5 5 5 5 4 3 1 2 3 4 6 7 9 10 11 12 13 13 13 14 13 13 13 13 14 15 12 11 11 11 11 11 10 11 14 16 16 16
4 6 5 4 4 5 6 7 7 6 4 3 2 2 3 4 6 7 8 9 11 12 12 12 12 14 14 13 14 15 15 16 15 11 11 11 11 10 8 7 7 7 10 14
4 4 6 7 7 6 6 7 6 4 3 2 3 3 4 5 7 8 9 10 11 12 11 12 13 14 14 14 15 16 14 12 11 10 10 10 10 10 7 6 6 6 6 7
7 8 8 7 7 7 6 5 5 4 3 1 2 3 4 6 7 8 9 8 9 12 12 12 13 15 15 15 15 13 11 19 18 12 10 10 9 9 8 7 6 5 5 5
11 8 7 7 7 6 6 5 6 5 4 1 1 3 5 6 6 8 9 8 8 9 11 11 13 15 15 14 13 10 9 12 19 13 9 9 9 9 8 6 5 5 4 6
7 7 8 8 8 8 7 7 6 6 4 2 1 3 4 5 7 10 11 12 11 10 9 10 13 13 13 13 11 8 9 10 10 10 11 11 11 9 8 7 5 4 3 4
7 8 7 8 9 9 8 7 6 5 4 2 1 3 4 5 6 8 9 9 9 11 12 13 20 15 14 15 14 6 9 10 11 11 11 16 14 11 10 8 5 3 3 3
8 8 8 9 8 8 8 7 6 5 4 2 1 3 5 6 6 8 8 6 5 7 12 14 12 11 12 10 15 7 9 11 12 12 11 11 11 11 10 9 7 4 2 2
10 9 9 9 7 7 8 8 7 6 4 2 1 2 5 7 7 6 6 7 7 11 11 16 11 11 10 12 14 8 9 11 12 11 11 10 10 11 11 10 8 7 5 4
9 9 10 9 9 7 6 6 5 5 4 2 1 2 4 6 7 6 5 4 7 17 10 7 9 15 18 15 8 9 10 11 11 9 9 8 9 9 9 10 8 8 6 4
9 9 10 9 9 8 6 5 5 5 4 2 1 3 4 5 5 5 7 6 7 15 10 7 15 21 21 11 9 10 11 11 11 9 8 7 7 7 7 9 8 7 6 5
10 10 9 7 8 8 7 6 5 3 3 2 3 4 4 4 4 3 4 11 15 15 7 12 20 21 17 8 9 10 10 11 10 9 7 6 5 6 6 6 7 6 6 7
10 9 9 10 9 7 6 6 5 3 3 2 4 4 3 3 4 5 6 7 12 12 7 12 18 19 11 8 9 10 10 11 13 11 8 7 6 5 6 6 6 6 6 6
9 9 8 7 6 6 6 6 4 4 3 2 2 2 2 3 4 5 4 6 8 11 8 6 8 11 8 8 9 10 10 12 12 12 12 9 6 5 5 6 7 6 6 6
8 7 6 5 4 5 6 6 5 5 4 3 2 2 2 3 4 4 4 5 5 6 6 6 6 6 7 8 8 9 10 10 11 12 13 11 7 5 5 7 6 6 6 7
Wind_Direction
279 339 284 253 222 177 180 196 217 258 280 295 308 318 317 325 333 341 345 341 347 346 340 337 340 342 342 338 337 339 338 338 338 336 333 334 336 339 339 339 340 340 344 350
283 335 298 236 197 181 189 201 246 276 280 265 300 313 316 327 341 344 341 342 347 344 341 340 342 343 339 334 334 336 335 335 336 337 338 338 338 342 342 341 341 342 346 350
288 313 342 272 206 187 208 213 221 254 262 303 317 320 325 342 0 347 339 343 344 340 335 332 336 339 333 330 328 333 333 333 335 337 339 339 343 344 342 339 341 344 347 350
320 6 288 271 168 165 234 264 242 240 268 296 299 304 342 55 10 343 336 338 332 332 328 322 326 331 329 326 328 332 333 333 334 336 336 337 343 343 339 335 338 340 340 346
75 305 281 281 208 178 222 282 242 229 275 299 319 310 125 57 12 328 324 323 318 320 315 318 325 330 330 328 330 333 335 334 333 333 334 337 342 340 338 334 337 339 340 344
124 262 263 264 163 131 102 291 263 242 284 310 348 335 345 40 349 329 331 324 317 317 315 320 321 326 328 327 329 332 334 332 329 331 333 334 339 337 338 340 344 344 344 344
174 234 267 235 138 116 150 267 262 274 301 322 285 269 344 360 340 340 331 319 317 316 316 314 318 325 327 324 323 326 328 328 328 329 324 332 335 331 335 340 341 343 344 343
165 219 262 197 142 175 215 248 11 54 91 261 278 326 345 335 332 336 329 323 318 318 316 315 317 323 321 319 317 319 321 322 322 323 320 331 329 326 330 334 336 336 340 342
193 215 248 188 189 193 158 116 88 136 159 140 354 336 328 328 327 327 327 323 322 316 316 315 316 320 314 312 314 316 316 314 312 315 314 314 317 319 323 327 330 332 341 342
246 257 239 232 192 105 82 104 117 128 122 113 101 335 332 331 333 332 328 327 328 324 323 320 318 315 307 307 314 314 312 311 308 308 305 303 310 317 317 315 316 323 340 338
253 267 234 217 153 117 106 112 112 101 95 94 88 6 340 319 323 327 332 332 329 325 319 315 315 313 311 311 310 309 309 307 308 306 300 297 297 299 305 298 305 321 326 326
217 207 170 174 131 131 142 143 133 125 107 80 64 11 335 315 316 322 327 328 325 321 315 314 315 312 310 310 309 307 308 309 308 307 304 305 304 302 299 306 317 322 323 330
170 137 122 121 112 122 128 121 106 107 120 118 85 21 344 322 325 327 324 322 320 315 314 314 313 311 311 312 311 307 306 309 308 309 309 307 305 302 300 305 314 322 324 327
152 121 123 146 137 115 109 106 100 92 92 99 74 27 350 321 315 319 314 312 310 310 311 313 314 312 312 313 312 310 310 311 315 308 304 303 304 304 299 303 315 317 322 324
118 121 133 126 119 115 112 110 112 119 121 89 41 11 341 325 316 311 307 311 314 315 316 319 316 312 312 314 314 314 315 313 313 314 318 321 320 318 310 301 301 303 308 317
111 100 117 136 146 142 134 136 146 160 152 104 6 338 319 303 297 300 305 310 316 317 316 315 313 311 314 315 317 317 315 324 336 336 330 325 321 315 308 298 290 285 288 294
134 150 166 172 168 158 155 157 160 158 155 152 309 311 315 317 317 322 323 322 312 302 301 305 312 312 313 319 321 319 325 332 339 333 321 317 313 310 309 302 288 278 270 277
159 169 172 166 161 152 144 140 143 148 156 160 300 330 339 339 329 322 321 323 324 322 315 317 314 316 323 325 325 338 337 330 329 328 329 331 337 334 324 312 300 291 278 290
127 132 134 136 142 145 145 147 151 150 143 121 39 348 322 313 308 306 309 317 323 327 321 317 327 335 324 326 344 339 333 335 337 336 339 349 356 351 348 341 328 307 291 286
124 122 118 118 123 133 143 146 147 146 143 127 46 345 333 324 314 308 306 298 285 291 298 316 333 325 319 335 356 342 340 341 340 342 349 357 356 353 352 354 356 351 334 312
138 134 133 135 135 138 145 148 150 153 154 143 90 326 312 307 310 312 318 324 324 318 322 341 337 320 335 357 355 345 343 342 341 346 354 357 355 355 357 2 5 9 7 358
147 145 146 145 143 144 147 147 148 151 154 164 251 305 316 320 320 311 288 270 305 326 342 335 322 340 1 2 346 345 343 340 337 345 355 357 355 353 353 357 1 4 2 353
152 152 153 157 155 148 142 147 156 160 167 184 257 304 309 301 299 307 325 324 322 334 349 325 340 354 4 359 346 344 341 338 336 344 352 353 349 345 344 345 348 349 347 344
152 152 149 140 132 139 157 169 167 168 177 219 261 272 279 297 300 274 285 320 333 341 346 339 355 1 5 355 344 341 338 335 336 340 340 343 341 335 332 332 334 335 336 337
149 144 144 151 163 172 166 155 159 179 201 237 263 264 259 259 279 298 308 318 332 345 340 343 354 358 359 345 345 340 336 336 341 343 333 331 331 328 321 318 318 319 320 320
152 159 166 175 168 156 152 157 170 184 188 202 235 255 284 292 289 295 310 325 332 344 341 333 338 347 346 344 344 341 336 335 337 339 337 328 316 315 313 310 307 304 302 300
131 137 142 146 156 161 160 169 177 182 181 182 202 239 284 301 307 319 332 338 337 333 329 333 338 341 341 342 343 343 338 337 339 343 343 338 322 301 296 296 294 292 291 290